| time (UTC) | temp F | wind direction | speed MPH | gust MPH | rain 1hr in | rain 24hr in | rain mn in | humidity % | barometer mb |
| 20260506072531 | 45 | 270 | 6.0 | 13.0 | 0.00 | 0.01 | 0.00 | 51 | 1010.3 |
| 20260506071530 | 45 | 248 | 6.0 | 14.0 | 0.00 | 0.01 | 0.00 | 54 | 1010.3 |
| 20260506070531 | 45 | 270 | 6.0 | 13.0 | 0.00 | 0.01 | 0.00 | 54 | 1010.2 |
| 20260506061530 | 44 | 293 | 3.0 | 9.0 | 0.00 | 0.01 | 0.00 | 61 | 1009.9 |
| 20260506060551 | 44 | 293 | 4.0 | 12.0 | 0.00 | 0.01 | 0.00 | 60 | 1009.8 |
| 20260506050530 | 41 | 270 | 1.0 | 6.0 | 0.00 | 0.02 | 0.00 | 77 | 1009.2 |
| 20260506044531 | 38 | 0.0 | 7.0 | 0.00 | 0.02 | 0.00 | 78 | 1009.1 | |
| 20260506043531 | 38 | 0.0 | 3.0 | 0.00 | 0.03 | 0.00 | 76 | 1009.0 | |
| 20260506042531 | 37 | 0.0 | 3.0 | 0.00 | 0.04 | 0.00 | 74 | 1008.9 | |
| 20260506041531 | 36 | 293 | 1.0 | 4.0 | 0.00 | 0.04 | 0.00 | 73 | 1008.9 |
| 20260506040531 | 36 | 0.0 | 3.0 | 0.00 | 0.04 | 0.00 | 72 | 1008.7 | |
| 20260506035532 | 35 | 0.0 | 4.0 | 0.00 | 0.05 | 0.00 | 68 | 1008.6 | |
| 20260506034531 | 35 | 0.0 | 3.0 | 0.00 | 0.05 | 0.00 | 64 | 1008.5 | |
| 20260506033532 | 34 | 293 | 1.0 | 4.0 | 0.00 | 0.06 | 0.00 | 59 | 1008.4 |
| 20260506032531 | 33 | 293 | 1.0 | 7.0 | 0.00 | 0.06 | 0.00 | 54 | 1008.2 |
| 20260506031531 | 33 | 0.0 | 2.0 | 0.00 | 0.07 | 0.00 | 58 | 1008.1 | |
| 20260506030533 | 33 | 0.0 | 0.0 | 0.00 | 0.08 | 0.00 | 61 | 1008.0 | |
| 20260506025552 | 33 | 0.0 | 3.0 | 0.00 | 0.08 | 0.00 | 59 | 1007.9 | |
| 20260506024553 | 33 | 270 | 1.0 | 6.0 | 0.00 | 0.08 | 0.00 | 56 | 1007.8 |
| 20260506023533 | 33 | 270 | 1.0 | 6.0 | 0.00 | 0.08 | 0.00 | 56 | 1007.7 |
| 20260506022552 | 33 | 270 | 3.0 | 9.0 | 0.00 | 0.08 | 0.00 | 56 | 1007.6 |
| 20260506021533 | 32 | 248 | 3.0 | 7.0 | 0.00 | 0.08 | 0.00 | 60 | 1007.6 |
| 20260506020533 | 32 | 270 | 2.0 | 8.0 | 0.00 | 0.08 | 0.00 | 64 | 1007.5 |
| 20260506015531 | 32 | 293 | 1.0 | 4.0 | 0.00 | 0.08 | 0.00 | 65 | 1007.4 |
| 20260506014531 | 33 | 293 | 2.0 | 4.0 | 0.00 | 0.08 | 0.00 | 67 | 1007.4 |
| 20260506013530 | 33 | 293 | 2.0 | 6.0 | 0.00 | 0.08 | 0.00 | 68 | 1007.2 |
| 20260506012533 | 33 | 270 | 2.0 | 4.0 | 0.00 | 0.08 | 0.00 | 70 | 1007.0 |
| 20260506011611 | 33 | 270 | 1.0 | 4.0 | 0.00 | 0.08 | 0.00 | 72 | 1007.0 |
| 20260506010531 | 33 | 270 | 1.0 | 2.0 | 0.00 | 0.08 | 0.00 | 74 | 1007.0 |
| 20260506005531 | 33 | 270 | 2.0 | 4.0 | 0.00 | 0.08 | 0.00 | 74 | 1006.9 |
| 20260506004532 | 33 | 270 | 1.0 | 4.0 | 0.00 | 0.08 | 0.00 | 76 | 1006.8 |
| 20260506003531 | 33 | 0.0 | 2.0 | 0.00 | 0.08 | 0.00 | 78 | 1006.8 | |
| 20260506002531 | 34 | 0.0 | 3.0 | 0.00 | 0.08 | 0.00 | 79 | 1006.7 | |
| 20260506001531 | 34 | 0.0 | 3.0 | 0.00 | 0.08 | 0.00 | 79 | 1006.7 | |
| 20260506000531 | 34 | 270 | 1.0 | 6.0 | 0.00 | 0.08 | 0.00 | 79 | 1006.5 |
| 20260505235531 | 35 | 0.0 | 2.0 | 0.00 | 0.08 | 0.00 | 79 | 1006.4 | |
| 20260505234532 | 35 | 293 | 2.0 | 8.0 | 0.00 | 0.08 | 0.00 | 79 | 1006.4 |
| 20260505233531 | 35 | 293 | 2.0 | 6.0 | 0.00 | 0.08 | 0.00 | 79 | 1006.5 |
| 20260505232532 | 35 | 270 | 5.0 | 8.0 | 0.00 | 0.08 | 0.00 | 79 | 1006.5 |
| 20260505231532 | 35 | 270 | 3.0 | 7.0 | 0.00 | 0.08 | 0.00 | 79 | 1006.4 |
| 20260505230531 | 35 | 293 | 3.0 | 10.0 | 0.00 | 0.08 | 0.00 | 78 | 1006.4 |
| 20260505225531 | 36 | 293 | 2.0 | 10.0 | 0.00 | 0.08 | 0.00 | 77 | 1006.3 |
| 20260505224532 | 36 | 315 | 3.0 | 9.0 | 0.00 | 0.08 | 0.00 | 76 | 1006.3 |
| 20260505223612 | 36 | 293 | 2.0 | 5.0 | 0.00 | 0.08 | 0.00 | 75 | 1006.1 |
| 20260505222531 | 37 | 293 | 4.0 | 9.0 | 0.00 | 0.08 | 0.00 | 74 | 1006.2 |
| 20260505221531 | 37 | 293 | 5.0 | 11.0 | 0.00 | 0.08 | 0.00 | 74 | 1006.2 |
| 20260505220551 | 37 | 270 | 4.0 | 10.0 | 0.00 | 0.08 | 0.00 | 73 | 1006.2 |
| 20260505215530 | 37 | 270 | 3.0 | 7.0 | 0.00 | 0.08 | 0.00 | 72 | 1006.1 |
| 20260505214531 | 38 | 270 | 4.0 | 9.0 | 0.00 | 0.08 | 0.00 | 72 | 1006.1 |
| 20260505213530 | 38 | 293 | 6.0 | 11.0 | 0.00 | 0.08 | 0.00 | 71 | 1006.0 |
| 20260505212531 | 38 | 293 | 4.0 | 12.0 | 0.00 | 0.08 | 0.00 | 71 | 1005.9 |
| 20260505211531 | 38 | 293 | 5.0 | 11.0 | 0.00 | 0.08 | 0.00 | 71 | 1005.9 |
| 20260505210532 | 38 | 293 | 5.0 | 12.0 | 0.00 | 0.08 | 0.00 | 71 | 1005.7 |
| 20260505205531 | 39 | 315 | 3.0 | 9.0 | 0.00 | 0.08 | 0.08 | 70 | 1005.6 |
| 20260505204531 | 39 | 293 | 4.0 | 9.0 | 0.00 | 0.08 | 0.08 | 69 | 1005.5 |
| 20260505203531 | 39 | 293 | 3.0 | 8.0 | 0.00 | 0.08 | 0.08 | 69 | 1005.5 |
| 20260505202531 | 39 | 270 | 4.0 | 9.0 | 0.00 | 0.08 | 0.08 | 68 | 1005.3 |
| 20260505201531 | 40 | 270 | 4.0 | 11.0 | 0.00 | 0.08 | 0.08 | 67 | 1005.3 |
| 20260505200533 | 40 | 293 | 4.0 | 9.0 | 0.00 | 0.08 | 0.08 | 66 | 1005.2 |
| 20260505195532 | 40 | 293 | 5.0 | 10.0 | 0.00 | 0.08 | 0.08 | 64 | 1005.1 |
| 20260505194532 | 40 | 293 | 4.0 | 9.0 | 0.00 | 0.08 | 0.08 | 63 | 1005.0 |
| 20260505193532 | 41 | 270 | 4.0 | 12.0 | 0.00 | 0.08 | 0.08 | 62 | 1004.9 |
| 20260505192531 | 41 | 270 | 4.0 | 10.0 | 0.00 | 0.08 | 0.08 | 59 | 1004.8 |
| 20260505191531 | 41 | 270 | 3.0 | 10.0 | 0.00 | 0.08 | 0.08 | 57 | 1004.8 |
| 20260505190532 | 41 | 270 | 2.0 | 7.0 | 0.00 | 0.08 | 0.08 | 56 | 1004.7 |
| 20260505185532 | 42 | 270 | 2.0 | 8.0 | 0.00 | 0.08 | 0.08 | 55 | 1004.7 |
| 20260505184530 | 42 | 270 | 1.0 | 7.0 | 0.00 | 0.08 | 0.08 | 55 | 1004.5 |
| 20260505183531 | 43 | 270 | 1.0 | 4.0 | 0.00 | 0.08 | 0.08 | 53 | 1004.5 |
| 20260505182551 | 43 | 270 | 2.0 | 7.0 | 0.00 | 0.08 | 0.08 | 51 | 1004.3 |
| 20260505181532 | 44 | 270 | 2.0 | 7.0 | 0.00 | 0.08 | 0.08 | 51 | 1004.2 |
| 20260505180532 | 44 | 270 | 2.0 | 8.0 | 0.00 | 0.08 | 0.08 | 51 | 1004.1 |
| 20260505175531 | 45 | 270 | 2.0 | 4.0 | 0.00 | 0.08 | 0.08 | 51 | 1004.0 |
| 20260505174532 | 46 | 293 | 2.0 | 12.0 | 0.00 | 0.08 | 0.08 | 50 | 1003.9 |
| 20260505173532 | 46 | 270 | 3.0 | 11.0 | 0.00 | 0.08 | 0.08 | 49 | 1003.8 |
| 20260505172612 | 47 | 270 | 2.0 | 7.0 | 0.00 | 0.08 | 0.08 | 47 | 1003.8 |
| 20260505171531 | 47 | 270 | 2.0 | 10.0 | 0.00 | 0.08 | 0.08 | 48 | 1003.8 |
| 20260505170531 | 47 | 293 | 1.0 | 6.0 | 0.00 | 0.08 | 0.08 | 47 | 1003.6 |
| 20260505165532 | 48 | 270 | 4.0 | 14.0 | 0.00 | 0.08 | 0.08 | 46 | 1003.7 |
| 20260505164531 | 49 | 293 | 5.0 | 13.0 | 0.00 | 0.08 | 0.08 | 45 | 1003.7 |
| 20260505163532 | 48 | 270 | 1.0 | 7.0 | 0.00 | 0.08 | 0.08 | 48 | 1003.6 |
| 20260505162532 | 48 | 293 | 5.0 | 13.0 | 0.00 | 0.08 | 0.08 | 46 | 1003.5 |
| 20260505161530 | 48 | 270 | 3.0 | 9.0 | 0.00 | 0.08 | 0.08 | 46 | 1003.5 |
| 20260505160532 | 49 | 270 | 5.0 | 13.0 | 0.00 | 0.08 | 0.08 | 45 | 1003.4 |
| 20260505152552 | 49 | 270 | 2.0 | 8.0 | 0.00 | 0.08 | 0.08 | 47 | 1003.2 |
| 20260505151532 | 49 | 270 | 5.0 | 15.0 | 0.00 | 0.08 | 0.08 | 46 | 1003.2 |
| 20260505150552 | 49 | 225 | 2.0 | 9.0 | 0.00 | 0.08 | 0.08 | 46 | 1003.0 |
| 20260505140533 | 49 | 270 | 5.0 | 11.0 | 0.01 | 0.08 | 0.08 | 48 | 1002.9 |
| 20260505124533 | 50 | 270 | 5.0 | 15.0 | 0.00 | 0.07 | 0.07 | 52 | 1002.5 |
| 20260505123531 | 49 | 293 | 7.0 | 19.0 | 0.00 | 0.07 | 0.07 | 52 | 1002.4 |
| 20260505122531 | 48 | 293 | 7.0 | 20.0 | 0.00 | 0.07 | 0.07 | 53 | 1002.4 |
| 20260505121531 | 49 | 293 | 8.0 | 22.0 | 0.00 | 0.07 | 0.07 | 50 | 1002.3 |
| 20260505120532 | 48 | 270 | 4.0 | 14.0 | 0.00 | 0.07 | 0.07 | 55 | 1002.3 |
| 20260505115534 | 47 | 270 | 6.0 | 16.0 | 0.00 | 0.07 | 0.07 | 57 | 1002.2 |
| 20260505114533 | 47 | 315 | 6.0 | 15.0 | 0.00 | 0.07 | 0.07 | 60 | 1002.1 |
| 20260505113532 | 47 | 270 | 9.0 | 17.0 | 0.00 | 0.07 | 0.07 | 55 | 1002.0 |
| 20260505112532 | 49 | 293 | 6.0 | 17.0 | 0.00 | 0.07 | 0.07 | 54 | 1001.9 |
| 20260505111552 | 48 | 293 | 7.0 | 18.0 | 0.00 | 0.07 | 0.07 | 57 | 1001.8 |
| 20260505110532 | 47 | 270 | 6.0 | 17.0 | 0.00 | 0.07 | 0.07 | 58 | 1001.8 |
| 20260505101552 | 47 | 293 | 8.0 | 19.0 | 0.00 | 0.07 | 0.07 | 62 | 1001.2 |
| 20260505100532 | 46 | 293 | 6.0 | 16.0 | 0.00 | 0.07 | 0.07 | 72 | 1001.2 |
| 20260505095552 | 45 | 293 | 9.0 | 23.0 | 0.00 | 0.07 | 0.07 | 74 | 1001.2 |
| 20260505094613 | 44 | 270 | 8.0 | 18.0 | 0.00 | 0.07 | 0.07 | 77 | 1001.2 |
| 20260505093532 | 43 | 315 | 8.0 | 17.0 | 0.00 | 0.07 | 0.07 | 77 | 1001.2 |
| 20260505092532 | 43 | 270 | 9.0 | 21.0 | 0.00 | 0.07 | 0.07 | 78 | 1001.3 |
| 20260505091532 | 44 | 270 | 8.0 | 18.0 | 0.00 | 0.07 | 0.07 | 78 | 1000.9 |
| 20260505090530 | 42 | 293 | 7.0 | 16.0 | 0.00 | 0.07 | 0.07 | 78 | 1001.0 |
| 20260505085552 | 42 | 293 | 6.0 | 17.0 | 0.00 | 0.07 | 0.07 | 77 | 1000.9 |
| 20260505084532 | 42 | 293 | 6.0 | 11.0 | 0.00 | 0.07 | 0.07 | 77 | 1000.8 |
| 20260505083532 | 42 | 315 | 6.0 | 13.0 | 0.00 | 0.07 | 0.07 | 73 | 1000.8 |
| 20260505082531 | 42 | 293 | 6.0 | 13.0 | 0.00 | 0.07 | 0.07 | 65 | 1000.6 |
| 20260505081531 | 41 | 315 | 5.0 | 15.0 | 0.00 | 0.07 | 0.07 | 53 | 1000.6 |
| 20260505080531 | 40 | 315 | 5.0 | 10.0 | 0.00 | 0.07 | 0.07 | 54 | 1000.5 |
| 20260505075532 | 41 | 315 | 7.0 | 14.0 | 0.00 | 0.07 | 0.07 | 69 | 1000.4 |
| 20260505074551 | 42 | 293 | 6.0 | 14.0 | 0.00 | 0.07 | 0.07 | 65 | 1000.2 |
| 20260505073532 | 41 | 293 | 3.0 | 8.0 | 0.00 | 0.07 | 0.07 | 50 | 1000.1 |